Location: New York
(40.7127°N, 74.0060°W)
Time: 02:50:52
(UTC-04:00)

UNISAT 6 - Pass Details

Date: 25 April 2024
Orbit: 593 x 668 km, 97.7° (Epoch: 20 May)

Event Time Altitude Azimuth Distance (km) Brightness Sun altitude
Rises 03:56:12 0° 134° (SE) 2,922 ? -21.4°
Reaches altitude 10° 03:58:47 10° 119° (ESE) 2,004 ? -21.1°
Maximum altitude 04:02:10 23° 68° (ENE) 1,346 ? -20.6°
Drops below altitude 10° 04:05:30 10° 17° (NNE) 1,979 ? -20.1°
Sets 04:08:02 0° 2° (N) 2,876 ? -19.7°
